Date String (YYYY-MM-DD hh:mm:ss) UTC,Instrument flags,Ambient pressure (hPa),Sample flow (lpm),Bypass flow (lpm),Sample temperature (°C),Ambient temperature (°C),ASC tube jacket temperature (°C),LED temperature (°C),Box temperature (°C),Sample RH (%),Span deviation,Mass concentration (μg/m³),Mass concentration (μg/m³),Mass concentration (μg/m³)
DateTimeUTC,F1_M11,P_M11,Q1_M11,Q2_M11,T1_M11,T2_M11,T3_M11,T4_M11,T5_M11,U1_M11,ZSPAN_M11,X0_M11,X2_M11,X1_M11
2022-08-14 22:00:00,,0827.1,5.00,0.00,29.3,28.2,00.0,37.9,31.2,34.0,0000.0,0008.16,0004.12,0003.63
2022-08-14 22:01:00,,0827.0,5.02,0.00,29.4,27.7,00.0,37.9,31.1,37.7,0000.0,0008.09,0004.24,0003.72
2022-08-14 22:02:00,,0826.9,4.99,0.00,29.6,27.2,00.0,37.9,31.1,37.8,0000.0,0008.10,0004.33,0003.81
2022-08-14 22:03:00,,0827.0,5.01,0.00,29.9,27.0,00.0,37.9,31.2,36.6,0000.0,0008.20,0004.44,0003.89
2022-08-14 22:04:00,,0827.0,4.99,0.00,30.3,27.1,00.0,37.9,31.3,35.7,0000.0,0008.05,0004.59,0003.97
2022-08-14 22:05:00,,0827.0,5.01,0.00,30.6,27.3,00.0,38.0,31.4,34.6,0000.0,0008.49,0004.81,0004.03
2022-08-14 22:06:00,,0827.1,4.99,0.00,30.9,27.5,00.0,38.1,31.5,33.4,0000.0,0008.76,0004.94,0004.10
2022-08-14 22:07:00,,0827.1,5.01,0.00,31.1,27.7,00.0,38.2,31.5,32.8,0000.0,0008.93,0005.04,0004.15
2022-08-14 22:08:00,,0827.1,5.00,0.00,31.1,27.9,00.0,38.3,31.5,32.7,0000.0,0009.72,0005.13,0004.20
2022-08-14 22:09:00,,0827.1,5.01,0.00,31.2,28.1,00.0,38.4,31.6,32.5,0000.0,0010.14,0005.21,0004.25
2022-08-14 22:10:00,,0827.2,5.00,0.00,31.2,28.2,00.0,38.6,31.6,32.0,0000.0,0010.35,0005.31,0004.32
2022-08-14 22:11:00,,0827.2,5.00,0.00,31.2,28.3,00.0,38.7,31.6,32.2,0000.0,0010.44,0005.42,0004.40
2022-08-14 22:12:00,,0827.2,5.01,0.00,31.2,27.9,00.0,38.7,31.5,32.5,0000.0,0010.41,0005.43,0004.41
2022-08-14 22:13:00,,0827.2,4.99,0.00,31.1,27.3,00.0,38.8,31.3,32.7,0000.0,0010.39,0005.41,0004.40
2022-08-14 22:14:00,,0827.2,5.01,0.00,31.0,27.1,00.0,38.8,31.3,33.3,0000.0,0010.44,0005.41,0004.40
2022-08-14 22:15:00,,0827.2,5.01,0.00,30.8,27.2,00.0,38.8,31.2,33.7,0000.0,0010.27,0005.38,0004.40
2022-08-14 22:16:00,,0827.2,4.99,0.00,30.7,27.3,00.0,38.9,31.2,34.1,0000.0,0010.04,0005.28,0004.41
2022-08-14 22:17:00,,0827.2,5.01,0.00,30.7,27.5,00.0,38.9,31.3,34.3,0000.0,0009.98,0005.25,0004.42
2022-08-14 22:18:00,,0827.3,4.99,0.00,30.7,27.7,00.0,38.9,31.4,34.1,0000.0,0009.98,0005.24,0004.44
2022-08-14 22:19:00,,0827.4,5.01,0.00,30.6,27.9,00.0,38.9,31.5,34.2,0000.0,0009.31,0005.21,0004.46
2022-08-14 22:20:00,,0827.4,5.00,0.00,30.6,28.1,00.0,38.9,31.5,34.4,0000.0,0009.18,0005.22,0004.48
2022-08-14 22:21:00,,0827.4,5.00,0.00,30.6,28.2,00.0,38.9,31.6,34.0,0000.0,0009.15,0005.26,0004.49
2022-08-14 22:22:00,,0827.4,5.01,0.00,30.6,28.4,00.0,39.0,31.7,33.8,0000.0,0009.30,0005.31,0004.51
2022-08-14 22:23:00,,0827.4,5.00,0.00,30.6,28.0,00.0,38.9,31.5,33.4,0000.0,0009.35,0005.31,0004.51
2022-08-14 22:24:00,,0827.4,5.01,0.00,30.5,27.4,00.0,38.9,31.3,33.4,0000.0,0009.29,0005.29,0004.49
2022-08-14 22:25:00,,0827.4,5.00,0.00,30.4,27.1,00.0,38.9,31.3,33.2,0000.0,0009.27,0005.28,0004.48
2022-08-14 22:26:00,,0827.4,5.00,0.00,30.3,27.1,00.0,38.8,31.2,33.6,0000.0,0009.23,0005.24,0004.46
2022-08-14 22:27:00,,0827.4,4.99,0.00,30.2,27.2,00.0,38.8,31.2,33.9,0000.0,0009.42,0005.24,0004.46
2022-08-14 22:28:00,,0827.4,5.02,0.00,30.2,27.4,00.0,38.8,31.2,33.9,0000.0,0009.30,0005.23,0004.45
2022-08-14 22:29:00,,0827.4,4.99,0.00,30.1,27.6,00.0,38.7,31.3,33.7,0000.0,0010.11,0005.23,0004.44
2022-08-14 22:30:00,,0827.5,5.01,0.00,30.1,27.8,00.0,38.7,31.4,33.5,0000.0,0010.13,0005.22,0004.42
2022-08-14 22:31:00,,0827.5,5.00,0.00,30.1,28.0,00.0,38.7,31.4,33.8,0000.0,0009.95,0005.20,0004.39
2022-08-14 22:32:00,,0827.5,5.01,0.00,30.1,28.2,00.0,38.7,31.5,33.7,0000.0,0009.89,0005.17,0004.37
2022-08-14 22:33:00,,0827.5,4.99,0.00,30.1,28.3,00.0,38.7,31.5,33.8,0000.0,0009.68,0005.09,0004.34
2022-08-14 22:34:00,,0827.5,4.99,0.00,30.2,28.1,00.0,38.7,31.5,33.5,0000.0,0009.60,0005.05,0004.33
2022-08-14 22:35:00,,0827.6,4.99,0.00,30.1,27.5,00.0,38.7,31.3,33.7,0000.0,0009.57,0005.04,0004.33
2022-08-14 22:36:00,,0827.6,5.00,0.00,30.0,27.2,00.0,38.6,31.2,33.8,0000.0,0009.45,0004.99,0004.31
2022-08-14 22:37:00,,0827.6,5.00,0.00,29.9,27.1,00.0,38.6,31.1,34.3,0000.0,0009.37,0004.97,0004.30
2022-08-14 22:38:00,,0827.5,4.99,0.00,29.8,27.2,00.0,38.6,31.1,34.7,0000.0,0009.10,0004.94,0004.29
2022-08-14 22:39:00,,0827.6,5.00,0.00,29.8,27.4,00.0,38.5,31.1,34.7,0000.0,0009.06,0004.92,0004.28
2022-08-14 22:40:00,,0827.7,4.99,0.00,29.8,27.6,00.0,38.5,31.2,34.4,0000.0,0008.33,0004.91,0004.28
2022-08-14 22:41:00,,0827.7,5.01,0.00,29.8,27.8,00.0,38.5,31.3,34.7,0000.0,0008.04,0004.87,0004.27
2022-08-14 22:42:00,,0827.6,5.00,0.00,29.9,27.9,00.0,38.5,31.4,34.5,0000.0,0007.98,0004.85,0004.28
2022-08-14 22:43:00,,0827.6,5.00,0.00,29.9,28.1,00.0,38.5,31.4,34.3,0000.0,0007.88,0004.81,0004.30
2022-08-14 22:44:00,,0827.6,5.00,0.00,29.9,28.3,00.0,38.5,31.5,34.0,0000.0,0007.83,0004.79,0004.30
2022-08-14 22:45:00,,0827.5,5.00,0.00,29.9,28.2,00.0,38.5,31.4,34.0,0000.0,0007.82,0004.77,0004.28
2022-08-14 22:46:00,,0827.6,5.02,0.00,29.8,27.5,00.0,38.5,31.2,34.3,0000.0,0007.81,0004.74,0004.26
2022-08-14 22:47:00,,0827.6,4.98,0.00,29.8,27.1,00.0,38.4,31.1,34.7,0000.0,0008.62,0004.76,0004.25
2022-08-14 22:48:00,,0827.5,5.01,0.00,29.8,27.0,00.0,38.4,31.1,35.3,0000.0,0008.72,0004.79,0004.26
2022-08-14 22:49:00,,0827.5,5.00,0.00,29.9,27.1,00.0,38.4,31.2,35.2,0000.0,0009.27,0004.79,0004.25
2022-08-14 22:50:00,,0827.5,5.00,0.00,30.2,27.3,00.0,38.3,31.4,34.6,0000.0,0010.30,0004.81,0004.24
2022-08-14 22:51:00,,0827.6,5.01,0.00,30.4,27.5,00.0,38.4,31.5,34.2,0000.0,0010.52,0004.79,0004.23
2022-08-14 22:52:00,,0827.7,5.00,0.00,30.5,27.7,00.0,38.4,31.5,33.6,0000.0,0010.65,0004.82,0004.23
2022-08-14 22:53:00,,0827.6,5.00,0.00,30.6,27.9,00.0,38.5,31.5,33.2,0000.0,0010.76,0004.83,0004.23
2022-08-14 22:54:00,,0827.6,5.00,0.00,30.7,28.1,00.0,38.5,31.6,33.3,0000.0,0010.80,0004.84,0004.22
2022-08-14 22:55:00,,0827.6,5.00,0.00,30.7,28.2,00.0,38.6,31.6,33.0,0000.0,0010.75,0004.83,0004.22
2022-08-14 22:56:00,,0827.6,5.02,0.00,30.7,28.2,00.0,38.7,31.6,32.8,0000.0,0010.72,0004.83,0004.23
2022-08-14 22:57:00,,0827.6,4.99,0.00,30.7,27.8,00.0,38.7,31.4,32.5,0000.0,0010.78,0004.90,0004.24
2022-08-14 22:58:00,,0827.5,5.01,0.00,30.6,27.3,00.0,38.7,31.2,33.0,0000.0,0010.12,0004.91,0004.25
2022-08-14 22:59:00,,0827.5,4.98,0.00,30.5,27.1,00.0,38.7,31.2,33.3,0000.0,0010.00,0004.89,0004.25
